Time,TemperatureF,DewpointF,PressureIn,WindDirection,WindDirectionDegrees,WindSpeedMPH,WindSpeedGustMPH,Humidity,HourlyPrecipIn,Conditions,Clouds,dailyrainin,SoftwareType,DateUTC
2013-03-15 00:02:00,44.0,18.0,-100.00,SSW,200,9.0,28.0,34,-99.99,,,-99.99,,2013-03-15 06:02:00,
2013-03-15 00:12:00,44.0,18.0,-100.00,SW,225,6.0,25.0,33,-99.99,,,-99.99,,2013-03-15 06:12:00,
2013-03-15 00:22:00,44.0,17.0,-100.00,WSW,240,3.0,13.0,33,-99.99,,,-99.99,,2013-03-15 06:22:00,
2013-03-15 00:32:00,44.0,18.0,-100.00,NW,315,4.0,12.0,34,-99.99,,,-99.99,,2013-03-15 06:32:00,
2013-03-15 00:42:00,43.0,17.0,-100.00,NW,325,4.0,11.0,34,-99.99,,,-99.99,,2013-03-15 06:42:00,
2013-03-15 00:52:00,44.0,17.0,-100.00,NW,310,6.0,20.0,34,-99.99,,,-99.99,,2013-03-15 06:52:00,
2013-03-15 01:02:00,44.0,17.0,-100.00,NNE,30,4.0,24.0,34,-99.99,,,-99.99,,2013-03-15 07:02:00,
2013-03-15 01:12:00,43.0,17.0,-100.00,SSW,200,5.0,14.0,34,-99.99,,,-99.99,,2013-03-15 07:12:00,
2013-03-15 01:22:00,43.0,17.0,-100.00,WNW,295,6.0,16.0,34,-99.99,,,-99.99,,2013-03-15 07:22:00,
2013-03-15 01:32:00,42.0,17.0,-100.00,West,265,4.0,10.0,34,-99.99,,,-99.99,,2013-03-15 07:32:00,
2013-03-15 01:42:00,44.0,17.0,-100.00,NW,305,8.0,17.0,33,-99.99,,,-99.99,,2013-03-15 07:42:00,
2013-03-15 01:52:00,43.0,17.0,-100.00,North,10,2.0,12.0,34,-99.99,,,-99.99,,2013-03-15 07:52:00,
2013-03-15 02:02:00,43.0,17.0,-100.00,East,80,6.0,12.0,33,-99.99,,,-99.99,,2013-03-15 08:02:00,
2013-03-15 02:12:00,43.0,17.0,-100.00,North,0,5.0,14.0,33,-99.99,,,-99.99,,2013-03-15 08:12:00,
2013-03-15 02:22:00,43.0,17.0,-100.00,North,0,4.0,13.0,33,-99.99,,,-99.99,,2013-03-15 08:22:00,
2013-03-15 02:32:00,43.0,16.0,-100.00,SSW,210,3.0,13.0,33,-99.99,,,-99.99,,2013-03-15 08:32:00,
2013-03-15 02:42:00,42.0,16.0,-100.00,SSE,165,4.0,12.0,33,-99.99,,,-99.99,,2013-03-15 08:42:00,
2013-03-15 02:52:00,43.0,17.0,-100.00,SW,225,4.0,13.0,34,-99.99,,,-99.99,,2013-03-15 08:52:00,
2013-03-15 03:02:00,43.0,17.0,-100.00,West,260,4.0,16.0,33,-99.99,,,-99.99,,2013-03-15 09:02:00,
2013-03-15 03:12:00,42.0,16.0,-100.00,SSW,210,4.0,8.0,34,-99.99,,,-99.99,,2013-03-15 09:12:00,
2013-03-15 03:22:00,42.0,17.0,-100.00,NNW,335,6.0,17.0,34,-99.99,,,-99.99,,2013-03-15 09:22:00,
2013-03-15 03:33:00,41.0,17.0,-100.00,WSW,240,2.0,10.0,36,-99.99,,,-99.99,,2013-03-15 09:33:00,
2013-03-15 03:43:00,42.0,17.0,-100.00,ENE,75,4.0,13.0,36,-99.99,,,-99.99,,2013-03-15 09:43:00,
2013-03-15 03:52:00,43.0,18.0,-100.00,NNW,335,11.0,21.0,36,-99.99,,,-99.99,,2013-03-15 09:52:00,
2013-03-15 04:03:00,43.0,19.0,-100.00,NNW,330,10.0,19.0,37,-99.99,,,-99.99,,2013-03-15 10:03:00,
2013-03-15 04:12:00,43.0,19.0,-100.00,NW,305,6.0,22.0,37,-99.99,,,-99.99,,2013-03-15 10:12:00,
2013-03-15 04:23:00,43.0,19.0,-100.00,NE,40,7.0,19.0,37,-99.99,,,-99.99,,2013-03-15 10:23:00,
2013-03-15 04:33:00,43.0,19.0,-100.00,NNE,20,7.0,19.0,37,-99.99,,,-99.99,,2013-03-15 10:33:00,
2013-03-15 04:42:00,43.0,19.0,-100.00,North,355,10.0,22.0,37,-99.99,,,-99.99,,2013-03-15 10:42:00,
2013-03-15 04:52:00,43.0,19.0,-100.00,North,0,10.0,19.0,37,-99.99,,,-99.99,,2013-03-15 10:52:00,
2013-03-15 05:03:00,43.0,19.0,-100.00,North,355,10.0,22.0,37,-99.99,,,-99.99,,2013-03-15 11:03:00,
2013-03-15 05:12:00,42.0,19.0,-100.00,NNE,15,7.0,17.0,38,-99.99,,,-99.99,,2013-03-15 11:12:00,
2013-03-15 05:22:00,42.0,19.0,-100.00,NW,325,6.0,16.0,38,-99.99,,,-99.99,,2013-03-15 11:22:00,
2013-03-15 05:32:00,43.0,19.0,-100.00,NW,320,8.0,23.0,38,-99.99,,,-99.99,,2013-03-15 11:32:00,
2013-03-15 05:42:00,43.0,19.0,-100.00,North,5,6.0,19.0,37,-99.99,,,-99.99,,2013-03-15 11:42:00,
2013-03-15 05:52:00,43.0,19.0,-100.00,NW,315,11.0,20.0,37,-99.99,,,-99.99,,2013-03-15 11:52:00,
2013-03-15 06:02:00,44.0,19.0,-100.00,North,0,10.0,33.0,36,-99.99,,,-99.99,,2013-03-15 12:02:00,
2013-03-15 06:12:00,44.0,19.0,-100.00,NW,305,6.0,17.0,36,-99.99,,,-99.99,,2013-03-15 12:12:00,
2013-03-15 06:22:00,43.0,18.0,-100.00,ENE,70,2.0,14.0,36,-99.99,,,-99.99,,2013-03-15 12:22:00,
2013-03-15 06:32:00,43.0,18.0,-100.00,North,0,7.0,14.0,36,-99.99,,,-99.99,,2013-03-15 12:32:00,
2013-03-15 06:42:00,44.0,19.0,-100.00,West,275,5.0,21.0,35,-99.99,,,-99.99,,2013-03-15 12:42:00,
2013-03-15 06:52:00,44.0,18.0,-100.00,WSW,250,2.0,17.0,35,-99.99,,,-99.99,,2013-03-15 12:52:00,
2013-03-15 07:02:00,43.0,18.0,-100.00,NW,320,6.0,19.0,36,-99.99,,,-99.99,,2013-03-15 13:02:00,
2013-03-15 07:12:00,44.0,18.0,-100.00,NW,325,6.0,17.0,35,-99.99,,,-99.99,,2013-03-15 13:12:00,
2013-03-15 07:22:00,44.0,18.0,-100.00,NW,320,9.0,17.0,35,-99.99,,,-99.99,,2013-03-15 13:22:00,
2013-03-15 07:32:00,44.0,18.0,-100.00,SW,215,6.0,20.0,35,-99.99,,,-99.99,,2013-03-15 13:32:00,
2013-03-15 07:42:00,44.0,18.0,-100.00,North,0,5.0,15.0,35,-99.99,,,-99.99,,2013-03-15 13:42:00,
2013-03-15 07:52:00,44.0,18.0,-100.00,WNW,290,7.0,20.0,34,-99.99,,,-99.99,,2013-03-15 13:52:00,
2013-03-15 08:02:00,44.0,18.0,-100.00,SW,225,2.0,22.0,35,-99.99,,,-99.99,,2013-03-15 14:02:00,
2013-03-15 08:12:00,43.0,18.0,-100.00,South,170,6.0,12.0,36,-99.99,,,-99.99,,2013-03-15 14:12:00,
2013-03-15 08:22:00,43.0,18.0,-100.00,SE,140,4.0,16.0,35,-99.99,,,-99.99,,2013-03-15 14:22:00,
2013-03-15 08:32:00,43.0,18.0,-100.00,SSE,155,4.0,14.0,35,-99.99,,,-99.99,,2013-03-15 14:32:00,
2013-03-15 08:42:00,44.0,18.0,-100.00,WSW,240,1.0,24.0,35,-99.99,,,-99.99,,2013-03-15 14:42:00,
2013-03-15 08:52:00,44.0,18.0,-100.00,NNW,330,7.0,20.0,35,-99.99,,,-99.99,,2013-03-15 14:52:00,
2013-03-15 09:02:00,44.0,19.0,-100.00,SSW,200,4.0,16.0,35,-99.99,,,-99.99,,2013-03-15 15:02:00,
2013-03-15 09:13:00,45.0,19.0,-100.00,NNW,330,4.0,25.0,34,-99.99,,,-99.99,,2013-03-15 15:13:00,
2013-03-15 09:22:00,45.0,19.0,-100.00,NW,315,3.0,19.0,34,-99.99,,,-99.99,,2013-03-15 15:22:00,
2013-03-15 09:33:00,45.0,19.0,-100.00,SW,215,9.0,18.0,34,-99.99,,,-99.99,,2013-03-15 15:33:00,
2013-03-15 09:42:00,46.0,19.0,-100.00,SW,230,7.0,24.0,34,-99.99,,,-99.99,,2013-03-15 15:42:00,
2013-03-15 09:52:00,47.0,20.0,-100.00,SW,225,9.0,31.0,33,-99.99,,,-99.99,,2013-03-15 15:52:00,
2013-03-15 10:02:00,47.0,20.0,-100.00,SSW,210,14.0,27.0,33,-99.99,,,-99.99,,2013-03-15 16:02:00,
2013-03-15 10:12:00,48.0,20.0,-100.00,SSE,160,9.0,29.0,33,-99.99,,,-99.99,,2013-03-15 16:12:00,
2013-03-15 10:22:00,48.0,21.0,-100.00,SW,225,12.0,36.0,33,-99.99,,,-99.99,,2013-03-15 16:22:00,
2013-03-15 10:32:00,48.0,20.0,-100.00,SW,215,14.0,34.0,33,-99.99,,,-99.99,,2013-03-15 16:32:00,
2013-03-15 10:42:00,49.0,21.0,-100.00,SSW,210,10.0,26.0,33,-99.99,,,-99.99,,2013-03-15 16:42:00,
2013-03-15 10:52:00,49.0,21.0,-100.00,WNW,300,12.0,27.0,32,-99.99,,,-99.99,,2013-03-15 16:52:00,
2013-03-15 11:02:00,49.0,21.0,-100.00,West,280,12.0,31.0,32,-99.99,,,-99.99,,2013-03-15 17:02:00,
2013-03-15 11:12:00,49.0,21.0,-100.00,South,190,4.0,29.0,32,-99.99,,,-99.99,,2013-03-15 17:12:00,
2013-03-15 11:22:00,50.0,21.0,-100.00,NW,315,5.0,25.0,31,-99.99,,,-99.99,,2013-03-15 17:22:00,
2013-03-15 11:32:00,50.0,21.0,-100.00,WNW,290,12.0,30.0,30,-99.99,,,-99.99,,2013-03-15 17:32:00,
2013-03-15 11:42:00,50.0,20.0,-100.00,SSW,210,16.0,40.0,30,-99.99,,,-99.99,,2013-03-15 17:42:00,
2013-03-15 11:52:00,50.0,21.0,-100.00,SW,220,9.0,27.0,30,-99.99,,,-99.99,,2013-03-15 17:52:00,
2013-03-15 12:02:00,51.0,21.0,-100.00,SW,220,6.0,29.0,30,-99.99,,,-99.99,,2013-03-15 18:02:00,
2013-03-15 12:12:00,51.0,21.0,-100.00,SW,235,10.0,24.0,30,-99.99,,,-99.99,,2013-03-15 18:12:00,
2013-03-15 12:22:00,52.0,22.0,-100.00,SW,230,6.0,21.0,30,-99.99,,,-99.99,,2013-03-15 18:22:00,
2013-03-15 12:32:00,51.0,21.0,-100.00,NNW,330,5.0,21.0,30,-99.99,,,-99.99,,2013-03-15 18:32:00,
2013-03-15 12:42:00,52.0,22.0,-100.00,NNW,335,8.0,16.0,30,-99.99,,,-99.99,,2013-03-15 18:42:00,
2013-03-15 12:52:00,53.0,22.0,-100.00,SSW,210,6.0,25.0,30,-99.99,,,-99.99,,2013-03-15 18:52:00,
2013-03-15 13:02:00,53.0,23.0,-100.00,SSW,200,6.0,18.0,29,-99.99,,,-99.99,,2013-03-15 19:02:00,
2013-03-15 13:12:00,53.0,22.0,-100.00,West,265,8.0,25.0,29,-99.99,,,-99.99,,2013-03-15 19:12:00,
2013-03-15 13:22:00,53.0,22.0,-100.00,NW,325,7.0,29.0,29,-99.99,,,-99.99,,2013-03-15 19:22:00,
2013-03-15 13:32:00,53.0,22.0,-100.00,SSW,195,10.0,30.0,29,-99.99,,,-99.99,,2013-03-15 19:32:00,
2013-03-15 13:42:00,53.0,22.0,-100.00,NNW,340,8.0,25.0,29,-99.99,,,-99.99,,2013-03-15 19:42:00,
2013-03-15 13:52:00,54.0,23.0,-100.00,SW,220,7.0,22.0,29,-99.99,,,-99.99,,2013-03-15 19:52:00,
2013-03-15 14:02:00,53.0,22.0,-100.00,WSW,250,5.0,20.0,29,-99.99,,,-99.99,,2013-03-15 20:02:00,
2013-03-15 14:22:00,53.0,22.0,-100.00,NW,310,12.0,24.0,29,-99.99,,,-99.99,,2013-03-15 20:22:00,
2013-03-15 14:32:00,54.0,22.0,-100.00,NW,325,5.0,25.0,29,-99.99,,,-99.99,,2013-03-15 20:32:00,
2013-03-15 14:42:00,54.0,23.0,-100.00,SE,140,6.0,24.0,29,-99.99,,,-99.99,,2013-03-15 20:42:00,
2013-03-15 14:52:00,53.0,22.0,-100.00,SW,225,9.0,28.0,29,-99.99,,,-99.99,,2013-03-15 20:52:00,
2013-03-15 15:02:00,54.0,23.0,-100.00,WNW,300,5.0,24.0,29,-99.99,,,-99.99,,2013-03-15 21:02:00,
2013-03-15 15:12:00,53.0,22.0,-100.00,WNW,295,5.0,21.0,29,-99.99,,,-99.99,,2013-03-15 21:12:00,
2013-03-15 15:22:00,54.0,22.0,-100.00,NW,315,6.0,15.0,29,-99.99,,,-99.99,,2013-03-15 21:22:00,
2013-03-15 15:33:00,54.0,22.0,-100.00,NE,55,1.0,18.0,29,-99.99,,,-99.99,,2013-03-15 21:33:00,
2013-03-15 15:43:00,55.0,23.0,-100.00,SW,225,5.0,12.0,29,-99.99,,,-99.99,,2013-03-15 21:43:00,
2013-03-15 15:52:00,54.0,22.0,-100.00,West,260,7.0,16.0,28,-99.99,,,-99.99,,2013-03-15 21:52:00,
2013-03-15 16:03:00,53.0,22.0,-100.00,North,0,9.0,25.0,29,-99.99,,,-99.99,,2013-03-15 22:03:00,
2013-03-15 16:13:00,53.0,22.0,-100.00,North,5,7.0,21.0,28,-99.99,,,-99.99,,2013-03-15 22:13:00,
2013-03-15 16:22:00,54.0,22.0,-100.00,SSW,210,6.0,19.0,28,-99.99,,,-99.99,,2013-03-15 22:22:00,
2013-03-15 16:32:00,53.0,21.0,-100.00,WNW,295,6.0,21.0,28,-99.99,,,-99.99,,2013-03-15 22:32:00,
2013-03-15 16:42:00,53.0,20.0,-100.00,West,270,9.0,20.0,28,-99.99,,,-99.99,,2013-03-15 22:42:00,
2013-03-15 16:52:00,53.0,21.0,-100.00,WNW,295,7.0,25.0,28,-99.99,,,-99.99,,2013-03-15 22:52:00,
2013-03-15 17:02:00,52.0,20.0,-100.00,SW,225,7.0,24.0,27,-99.99,,,-99.99,,2013-03-15 23:02:00,
2013-03-15 17:12:00,52.0,19.0,-100.00,WNW,295,6.0,25.0,27,-99.99,,,-99.99,,2013-03-15 23:12:00,
2013-03-15 17:22:00,51.0,19.0,-100.00,NE,55,4.0,24.0,28,-99.99,,,-99.99,,2013-03-15 23:22:00,
2013-03-15 17:32:00,51.0,19.0,-100.00,North,10,6.0,29.0,28,-99.99,,,-99.99,,2013-03-15 23:32:00,
2013-03-15 17:42:00,51.0,19.0,-100.00,SW,215,3.0,23.0,28,-99.99,,,-99.99,,2013-03-15 23:42:00,
2013-03-15 17:52:00,51.0,19.0,-100.00,WNW,295,4.0,19.0,28,-99.99,,,-99.99,,2013-03-15 23:52:00,
2013-03-15 18:02:00,50.0,19.0,-100.00,SSW,200,9.0,21.0,28,-99.99,,,-99.99,,2013-03-16 00:02:00,
2013-03-15 18:12:00,49.0,19.0,-100.00,West,260,6.0,16.0,29,-99.99,,,-99.99,,2013-03-16 00:12:00,
2013-03-15 18:22:00,49.0,19.0,-100.00,West,270,14.0,29.0,29,-99.99,,,-99.99,,2013-03-16 00:22:00,
2013-03-15 18:32:00,48.0,19.0,-100.00,SSW,205,7.0,20.0,30,-99.99,,,-99.99,,2013-03-16 00:32:00,
2013-03-15 18:42:00,48.0,19.0,-100.00,WSW,245,11.0,25.0,30,-99.99,,,-99.99,,2013-03-16 00:42:00,
2013-03-15 18:52:00,48.0,19.0,-100.00,South,190,9.0,25.0,31,-99.99,,,-99.99,,2013-03-16 00:52:00,
2013-03-15 19:02:00,47.0,19.0,-100.00,North,350,6.0,19.0,32,-99.99,,,-99.99,,2013-03-16 01:02:00,
2013-03-15 19:12:00,47.0,19.0,-100.00,SSW,210,4.0,27.0,32,-99.99,,,-99.99,,2013-03-16 01:12:00,
2013-03-15 19:21:00,46.0,19.0,-100.00,West,265,3.0,17.0,33,-99.99,,,-99.99,,2013-03-16 01:21:00,
2013-03-15 19:32:00,46.0,19.0,-100.00,NW,315,4.0,16.0,33,-99.99,,,-99.99,,2013-03-16 01:32:00,
2013-03-15 19:42:00,46.0,19.0,-100.00,North,0,2.0,16.0,33,-99.99,,,-99.99,,2013-03-16 01:42:00,
2013-03-15 19:52:00,46.0,20.0,-100.00,NNW,340,7.0,14.0,34,-99.99,,,-99.99,,2013-03-16 01:52:00,
2013-03-15 20:02:00,46.0,20.0,-100.00,SW,220,5.0,15.0,34,-99.99,,,-99.99,,2013-03-16 02:02:00,
2013-03-15 20:12:00,46.0,20.0,-100.00,WNW,290,5.0,34.0,34,-99.99,,,-99.99,,2013-03-16 02:12:00,
2013-03-15 20:22:00,46.0,20.0,-100.00,WSW,240,9.0,27.0,34,-99.99,,,-99.99,,2013-03-16 02:22:00,
2013-03-15 20:32:00,46.0,19.0,-100.00,SW,230,7.0,18.0,34,-99.99,,,-99.99,,2013-03-16 02:32:00,
2013-03-15 20:42:00,45.0,19.0,-100.00,West,270,6.0,15.0,34,-99.99,,,-99.99,,2013-03-16 02:42:00,
2013-03-15 20:52:00,45.0,19.0,-100.00,North,10,4.0,16.0,35,-99.99,,,-99.99,,2013-03-16 02:52:00,
2013-03-15 21:02:00,45.0,19.0,-100.00,WNW,290,6.0,14.0,34,-99.99,,,-99.99,,2013-03-16 03:02:00,
2013-03-15 21:12:00,45.0,19.0,-100.00,WNW,290,11.0,27.0,34,-99.99,,,-99.99,,2013-03-16 03:12:00,
2013-03-15 21:22:00,46.0,19.0,-100.00,SW,225,9.0,20.0,34,-99.99,,,-99.99,,2013-03-16 03:22:00,
2013-03-15 21:32:00,46.0,19.0,-100.00,SW,235,12.0,31.0,34,-99.99,,,-99.99,,2013-03-16 03:32:00,
2013-03-15 21:43:00,45.0,19.0,-100.00,West,280,9.0,19.0,34,-99.99,,,-99.99,,2013-03-16 03:43:00,
2013-03-15 21:52:00,45.0,19.0,-100.00,WSW,245,6.0,21.0,34,-99.99,,,-99.99,,2013-03-16 03:52:00,
2013-03-15 22:02:00,45.0,19.0,-100.00,West,275,7.0,21.0,34,-99.99,,,-99.99,,2013-03-16 04:02:00,
2013-03-15 22:12:00,45.0,19.0,-100.00,SSW,195,5.0,28.0,35,-99.99,,,-99.99,,2013-03-16 04:12:00,
2013-03-15 22:22:00,44.0,19.0,-100.00,WSW,245,9.0,21.0,36,-99.99,,,-99.99,,2013-03-16 04:22:00,
2013-03-15 22:32:00,44.0,20.0,-100.00,SW,220,7.0,30.0,36,-99.99,,,-99.99,,2013-03-16 04:32:00,
2013-03-15 22:42:00,44.0,20.0,-100.00,SW,225,11.0,21.0,37,-99.99,,,-99.99,,2013-03-16 04:42:00,
2013-03-15 22:52:00,44.0,20.0,-100.00,SW,230,8.0,24.0,38,-99.99,,,-99.99,,2013-03-16 04:52:00,
2013-03-15 23:02:00,43.0,20.0,-100.00,SW,220,11.0,29.0,38,-99.99,,,-99.99,,2013-03-16 05:02:00,
2013-03-15 23:12:00,43.0,20.0,-100.00,SW,230,9.0,26.0,40,-99.99,,,-99.99,,2013-03-16 05:12:00,
2013-03-15 23:21:00,42.0,20.0,-100.00,SW,225,12.0,24.0,41,-99.99,,,-99.99,,2013-03-16 05:21:00,
2013-03-15 23:32:00,42.0,21.0,-100.00,WSW,240,9.0,22.0,42,-99.99,,,-99.99,,2013-03-16 05:32:00,
2013-03-15 23:42:00,42.0,21.0,-100.00,SW,235,8.0,27.0,43,-99.99,,,-99.99,,2013-03-16 05:42:00,
2013-03-15 23:52:00,41.0,21.0,-100.00,SW,225,7.0,22.0,44,-99.99,,,-99.99,,2013-03-16 05:52:00,